Flag for U.S.A. Weather past 2 weeks in Clarksville, Tennessee, U.S.A.

Now
42 °F

Clear.


Feels Like: 37 °F
Forecast: 43 / 64 °F
Wind: 8 mph from North

Location: Outlaw Field

Current Time: Apr 27, 2015 at 4:30:52 AM

Latest Report: Apr 27, 2015 at 3:52 AM


Visibility: 10 mi

Pressure: 29.94 "Hg

Humidity: 85%

Dew point: 38 °F

Location of ClarksvilleLocation

Historic Weather in Clarksville — Graph

°F

Clarksville temperature yesterday

Maximum temperature yesterday: 62 °F (at 5:52 PM)
Minimum temperature yesterday: 48 °F (at 11:52 PM)
Average temperature yesterday: 54 °F

Past Weeks' High & Low Weather Summary

 TemperatureHumidityPressure
High81 °F (Apr 25, 3:52 PM)100% (Apr 16, 2:52 AM)30.17 "Hg (Apr 16, 2:52 AM)
Low38 °F (Apr 23, 5:52 AM)22% (Apr 12, 3:52 PM)29.44 "Hg (Apr 25, 5:52 PM)
Average61 °F74%29.92 "Hg
* Reported Apr 12 2:52 AM — Apr 27 2:52 AM, Clarksville, Weather by CustomWeather, © 2015

Note: Actual official high and low records may vary slightly from our data, if they occured in-between our weather recording intervals... More about our weather records

Advertising

Clarksville weather history for previous 24 hours

 ConditionsComfort  
Time TempWeatherWind HumidityBarometerVisibility
2:52 AM
Mon, Apr 27
45 °FClear.7 mph80%29.92 "Hg10 mi
1:52 AM47 °FClear.9 mph77%29.92 "Hg10 mi
12:52 AM48 °FClear.12 mph74%29.92 "Hg10 mi
11:52 PM
Sun, Apr 26
48 °FClear.9 mph71%29.92 "Hg10 mi
10:52 PM49 °FClear.7 mph71%29.92 "Hg10 mi
9:52 PM52 °FClear.6 mph66%29.92 "Hg10 mi
8:52 PM52 °FClear.7 mph69%29.88 "Hg10 mi
7:52 PM55 °FClear.5 mph69%29.87 "Hg10 mi
6:52 PM59 °FSunny.3 mph58%29.85 "Hg10 mi
5:52 PM62 °FPartly sunny.5 mph56%29.84 "Hg10 mi
4:52 PM60 °FOvercast.9 mph62%29.84 "Hg10 mi
3:52 PM59 °FOvercast.7 mph64%29.83 "Hg10 mi
2:52 PM56 °FOvercast.8 mph70%29.84 "Hg10 mi
1:52 PM55 °FOvercast.8 mph74%29.85 "Hg10 mi
12:52 PM52 °FOvercast.14 mph83%29.85 "Hg10 mi
11:52 AM51 °FOvercast.10 mph86%29.86 "Hg10 mi
10:52 AM50 °FOvercast.10 mph89%29.85 "Hg10 mi
9:52 AM50 °FFog.12 mph93%29.82 "Hg4 mi
8:52 AM50 °FFog.14 mph93%29.80 "Hg6 mi
7:52 AM50 °FFog.13 mph96%29.78 "Hg4 mi
6:52 AM51 °FFog.13 mph96%29.74 "Hg4 mi
5:52 AM52 °FFog.13 mph97%29.71 "Hg2 mi
4:52 AM54 °FFog.14 mph97%29.67 "Hg3 mi
Weather by CustomWeather, © 2015

See weather overviewHow to use our weather pages